Powrót do katalogu

NIMBUS 2 DEB

AktywnyLEO
NORAD 39294·DEBRIS·🇺🇸 United States

Wystrzelony May 15, 1966 z Vandenberg Space Force Base

Loading…

Następne Przeloty (najbliższe 24 godziny)

TLE

ŚwieżeSource: Space-Track

Epoka: Sep 14, 2026, 04:14 UTC

1 39294U 66040BC  26257.17682462  .00001232  00000-0  20742-2 0  9996
2 39294 100.4404 165.0663 0058391 324.0703  35.6508 13.47457052631672

Śledź NIMBUS 2 DEB w czasie rzeczywistym z AllMySat

Download on the App Store